Weather History for KISN - January, 2014

Change the Weather History Date:

Monday, January 13, 2014

  Actual Average Record
Temperature  
Mean Temperature 23 °F 10 °F  
Max Temperature 36 °F 21 °F 47 °F (1914)
Min Temperature 10 °F 0 °F -41 °F (1916)
Degree Days  
Heating Degree Days 42 55  
Month to date heating degree days 718 712  
Since 1 July heating degree days 4567 4459  
Cooling Degree Days 0 0  
Month to date cooling degree days 0 0  
Year to date cooling degree days 0 0  
Moisture  
Dew Point 21 °F    
Average Humidity 81    
Maximum Humidity 92    
Minimum Humidity 70    
Precipitation  
Precipitation 0.02 in 0.02 in 0.28 in (1999)
Month to date precipitation 0.16 0.28  
Year to date precipitation 0.16 0.28  
Sea Level Pressure  
Sea Level Pressure 29.65 in    
Wind  
Wind Speed 13 mph (WNW)    
Max Wind Speed 33 mph    
Max Gust Speed 44 mph    
Visibility 8 miles    
Events Snow    
T = Trace of Precipitation, MM = Missing Value Source: NWS Daily Summary

Daily Weather History Graph

Daily Weather History Graph

Search for Another Location

Airport or City:

Trip Planner

Search our weather history database for the weather conditions in past years. The results will help you decide how hot, cold, wet, or windy it might be!

Date:

Astronomy

Jan. 13, 2014 Rise Set
Actual Time 8:41 AM CST 5:25 PM CST
Civil Twilight 8:05 AM CST 6:01 PM CST
Nautical Twilight 7:27 AM CST 6:40 PM CST
Astronomical Twilight 6:49 AM CST 7:17 PM CST
Moon 3:44 PM CST (1/13) 6:30 AM CST (1/13)
Length of Visible Light 9h 55m
Length of Day
8h 44m
Waxing Gibbous, 95% of the Moon is Illuminated
Jan 13
Waxing Gibbous
Jan 15
Full
Jan 23
Last Quarter
Jan 30
New
Feb 6
First Quarter

Hourly Weather History & Observations

Time (CST) Temp. Windchill Dew Point Humidity Pressure Visibility Wind Dir Wind Speed Gust Speed Precip Events Conditions
12:52 AM 16.0 °F 5.3 °F 12.0 °F 84% 29.75 in 10.0 mi WSW 8.1 mph - N/A   Clear
1:52 AM 12.9 °F 3.8 °F 10.9 °F 92% 29.76 in 10.0 mi South 5.8 mph - N/A   Scattered Clouds
2:52 AM 15.1 °F 9.4 °F 12.0 °F 88% 29.74 in 10.0 mi SSW 3.5 mph - N/A   Clear
3:52 AM 12.9 °F 3.8 °F 10.0 °F 88% 29.73 in 10.0 mi SSE 5.8 mph - N/A   Clear
4:52 AM 10.9 °F - 8.1 °F 88% 29.70 in 10.0 mi Calm Calm - N/A   Mostly Cloudy
5:52 AM 16.0 °F 10.4 °F 12.9 °F 88% 29.67 in 10.0 mi South 3.5 mph - N/A   Overcast
6:52 AM 15.1 °F - 12.0 °F 88% 29.63 in 10.0 mi Calm Calm - N/A   Mostly Cloudy
7:52 AM 16.0 °F 8.8 °F 12.9 °F 88% 29.59 in 10.0 mi SW 4.6 mph - N/A   Mostly Cloudy
8:52 AM 15.1 °F - 12.0 °F 88% 29.58 in 10.0 mi Calm Calm - N/A   Mostly Cloudy
9:52 AM 19.0 °F 7.5 °F 16.0 °F 88% 29.57 in 10.0 mi SW 10.4 mph - N/A   Clear
10:52 AM 25.0 °F 18.1 °F 21.0 °F 85% 29.56 in 10.0 mi South 5.8 mph - N/A   Clear
11:52 AM 30.9 °F 20.2 °F 24.1 °F 76% 29.54 in 10.0 mi WSW 15.0 mph - N/A   Mostly Cloudy
12:52 PM 34.0 °F 25.5 °F 26.1 °F 73% 29.53 in 10.0 mi WSW 11.5 mph - N/A   Overcast
1:52 PM 36.0 °F 28.5 °F 27.0 °F 70% 29.50 in 10.0 mi West 10.4 mph - N/A   Overcast
2:52 PM 36.0 °F 27.1 °F 28.0 °F 73% 29.49 in 10.0 mi West 13.8 mph - N/A   Overcast
3:52 PM 35.1 °F 25.9 °F 28.0 °F 76% 29.52 in 10.0 mi NW 13.8 mph - N/A   Overcast
4:23 PM 34.0 °F 22.7 °F 30.0 °F 85% 29.48 in 2.5 mi NNW 19.6 mph - 0.00 in Snow Light Snow
4:26 PM 34.0 °F 23.0 °F 30.9 °F 89% 29.48 in 3.0 mi NNW 18.4 mph - 0.00 in Snow Light Snow
4:38 PM 34.0 °F 23.8 °F 30.9 °F 89% 29.49 in 2.0 mi NW 16.1 mph - 0.01 in Snow Light Snow
4:47 PM 33.1 °F 22.2 °F 30.9 °F 92% 29.50 in 1.2 mi NW 17.3 mph - 0.01 in Snow Light Snow
4:52 PM 33.1 °F 21.9 °F 30.9 °F 92% 29.60 in 1.0 mi NW 18.4 mph 25.3 mph 0.02 in Snow Light Snow
5:02 PM 33.1 °F 22.6 °F 30.9 °F 92% 29.50 in 2.5 mi NW 16.1 mph - 0.00 in Snow Light Snow
5:08 PM 34.0 °F 24.6 °F 30.9 °F 89% 29.50 in 8.0 mi NW 13.8 mph - 0.00 in Snow Light Snow
5:52 PM 36.0 °F 23.9 °F 30.0 °F 79% 29.65 in 10.0 mi NW 25.3 mph 38.0 mph 0.00 in   Overcast
6:52 PM 34.0 °F 21.5 °F 28.0 °F 79% 29.70 in 10.0 mi NW 24.2 mph 35.7 mph N/A   Scattered Clouds
7:52 PM 30.9 °F 17.2 °F 23.0 °F 72% 29.79 in 10.0 mi NNW 25.3 mph 36.8 mph N/A   Clear
8:52 PM 27.0 °F 11.0 °F 19.0 °F 72% 29.86 in 10.0 mi NNW 28.8 mph 38.0 mph N/A   Clear
9:52 PM 25.0 °F 7.8 °F 17.1 °F 72% 29.93 in 10.0 mi NW 31.1 mph 38.0 mph N/A   Clear
10:52 PM 23.0 °F 7.6 °F 15.1 °F 72% 29.97 in 10.0 mi NNW 21.9 mph 29.9 mph N/A   Clear
11:52 PM 23.0 °F 6.6 °F 14.0 °F 68% 30.01 in 10.0 mi NW 25.3 mph 34.5 mph N/A   Clear